CAPE
0 0 0 0 0 0 0 0 0 0 0 0 0 0 115 723 68 10 787 717 448 344 1352 1575 1263 1337 1497 1536 1468 1473 1644 1850 1984 2018 2034 2055 2087 2101 2065 1945 1807 1649 1108 821 615 453 343 514 777
0 0 0 0 0 0 0 0 0 0 0 230 140 249 535 954 1354 1268 1062 718 701 454 1281 1622 1207 1254 1386 1451 1537 1604 1838 1873 1825 1891 1952 2002 2054 2067 1992 1790 1586 1534 988 785 608 417 298 333 612
0 0 0 0 0 0 0 0 0 0 0 0 17 235 734 1317 1464 1165 1388 764 887 639 1165 1508 1226 1230 1360 1445 1550 1659 1780 1755 1797 1894 2039 2072 2016 1869 1835 1600 1453 1381 956 765 596 296 181 172 345
0 0 0 0 0 0 0 0 0 0 0 0 0 89 653 1174 1570 1652 1549 882 845 804 1070 1044 1246 1194 1319 1461 1574 1639 1569 1516 1648 1800 2033 2107 2019 1946 1785 1396 1525 1205 986 706 388 46 0 0 0
0 0 0 0 0 0 0 0 0 0 0 0 0 18 537 1033 1326 1619 1139 819 858 849 1078 1291 1329 1196 1343 1554 1640 1459 1351 1357 1568 1819 1877 1953 2110 2021 1503 1364 1520 1377 881 494 95 0 0 0 0
0 0 0 0 0 0 0 0 0 0 0 0 0 7 357 1030 1466 1566 869 685 733 813 1033 1344 1274 1247 1271 1487 1480 1166 1113 1214 1418 1604 1729 1919 2021 1719 1287 1339 1391 1175 863 284 0 0 0 0 10
0 0 0 0 0 0 0 0 0 0 0 0 0 0 52 704 1380 1326 960 709 626 777 983 1241 1526 1504 1243 1329 1299 1086 997 1108 1264 1347 1456 1612 1675 1190 1185 1223 1150 876 598 170 0 0 0 0 20
0 0 0 0 0 0 0 0 0 0 0 0 0 0 0 187 1164 1039 1104 836 683 715 884 943 1264 1525 1534 1734 1236 1126 1004 1041 1175 1243 1284 1248 1308 1014 1026 976 956 765 482 102 0 0 0 0 0
0 0 0 0 0 0 0 0 0 0 0 0 0 0 0 219 1003 988 1082 1016 782 527 648 916 989 1041 1655 1339 1450 1174 1079 1043 1147 1255 1235 1227 1469 1454 1173 856 627 528 264 61 0 0 0 0 0
0 0 0 0 0 0 0 0 0 0 0 0 0 0 101 425 996 1339 1286 1343 1166 901 505 669 562 709 1822 1652 1271 1484 1448 1512 1614 1611 1746 1735 1655 1515 1191 778 414 230 173 120 5 0 0 0 0
0 0 0 0 0 0 0 0 0 0 0 0 0 0 0 286 826 1195 1240 1218 1129 1064 644 464 515 948 1248 1129 1595 1515 1675 1474 1586 1581 1415 1393 1502 1399 1231 1113 764 659 244 216 91 0 0 0 0
0 0 0 0 0 0 0 0 0 0 0 0 0 0 0 119 391 738 1000 1077 917 923 935 633 574 677 824 661 890 1004 1448 1200 1558 1378 1296 1062 1066 1024 1186 1047 876 577 341 238 127 30 0 0 0
0 0 0 0 0 0 0 0 0 0 0 0 0 0 0 0 6 233 463 606 792 918 932 745 682 616 681 565 744 981 1312 1082 1120 1723 1432 1379 1585 1066 935 982 748 494 358 262 234 204 127 26 0
0 0 0 0 0 0 0 0 0 0 0 0 0 0 0 0 0 0 78 257 543 888 945 766 767 705 697 637 556 470 953 1065 1203 1249 1187 1258 1389 1177 967 1020 813 642 407 250 179 194 205 148 5
0 0 0 0 0 0 0 0 0 0 0 0 0 0 0 0 0 0 0 29 297 536 948 717 727 787 773 708 679 804 946 1080 1148 1169 1367 1611 1071 666 786 792 752 498 481 213 161 150 126 173 187
0 0 0 0 0 0 0 0 0 0 0 0 0 0 0 0 0 0 0 0 0 94 724 816 643 1035 905 911 869 1402 1010 830 924 1048 675 622 664 914 723 832 592 617 578 549 519 484 696 554 422
0 0 0 0 0 0 0 0 0 0 0 0 0 0 0 0 0 0 0 0 0 0 496 553 620 1045 1004 1023 1269 1054 824 1194 1074 610 641 729 841 829 915 780 629 660 743 783 723 769 670 544 388
0 0 0 0 0 0 0 0 0 0 0 0 0 0 0 0 0 0 0 0 0 0 337 450 485 976 970 1000 1089 997 745 682 963 1222 566 1313 856 737 605 546 480 323 146 116 218 163 229 352 123
0 0 0 0 0 0 0 0 0 0 0 0 0 0 0 0 0 0 0 0 2 24 88 552 824 799 1019 1052 1151 1074 1001 627 325 491 372 350 540 225 243 197 30 28 11 9 14 3 1 1 76
0 0 0 0 0 0 0 0 0 0 0 0 0 0 0 0 0 0 9 0 3 68 215 527 586 1018 986 1069 1121 784 1065 328 0 0 0 0 0 0 0 0 0 0 0 0 0 0 9 10 0
0 0 0 0 0 0 0 0 0 0 0 0 0 0 0 0 0 0 25 183 114 180 242 393 449 668 818 1272 1065 984 371 40 0 0 0 0 0 0 0 0 0 0 0 0 0 0 0 0 0
0 0 0 0 0 0 0 0 0 0 0 0 0 0 0 0 0 0 0 11 217 258 308 325 332 392 557 508 167 1 0 0 0 0 0 0 0 0 0 0 0 0 0 0 0 0 7 14 6
0 0 0 0 0 0 0 0 0 0 0 0 0 0 0 0 0 0 0 0 0 0 0 0 0 0 0 0 0 0 0 0 0 0 0 0 0 0 0 0 0 0 0 0 0 0 7 25 40
0 0 0 0 0 0 0 0 0 0 0 0 0 0 0 0 0 0 0 0 0 0 0 0 0 0 0 0 0 0 0 0 0 0 0 0 0 0 0 0 0 0 0 0 0 0 8 24 45
0 0 0 0 0 0 0 0 0 0 0 0 0 0 0 0 0 0 0 0 0 0 0 0 0 0 0 0 0 0 0 0 0 0 0 0 0 0 0 0 0 0 0 0 0 3 12 27 58
0 0 0 0 0 0 0 0 0 0 0 0 0 0 0 0 0 0 0 0 0 0 0 0 0 0 0 0 0 0 0 0 0 0 0 0 0 0 0 0 0 0 0 0 10 28 38 46 78
0 0 0 1 0 0 0 0 0 0 0 0 0 0 0 0 0 0 0 0 0 0 0 0 0 0 0 0 0 0 0 0 0 0 0 0 0 0 0 0 0 0 0 0 19 52 49 48 72
15 0 4 45 0 0 0 0 0 0 0 0 0 0 0 0 0 0 0 0 0 0 0 0 0 0 0 0 0 0 0 0 0 0 0 0 0 0 0 0 0 0 0 0 0 0 0 0 0
0 0 0 25 15 0 0 0 0 0 0 0 0 0 0 0 0 0 0 0 0 0 0 0 0 0 0 0 0 0 0 0 0 0 0 0 0 0 0 0 0 0 0 0 0 0 0 0 0
0 0 0 0 0 0 0 0 0 0 0 0 0 0 0 0 0 0 0 0 0 0 0 0 0 0 0 0 0 0 0 0 0 0 0 0 0 0 0 0 0 0 0 0 0 0 0 0 0
CIN
-0 -0 -0 -0 -0 -0 -0 -0 -0 -0 -0 -0 -0 -0 -149 -144 -138 -28 -365 -415 -537 -505 -358 -291 -313 -265 -211 -187 -198 -181 -152 -118 -101 -97 -94 -82 -66 -58 -45 -35 -42 -62 -138 -176 -198 -235 -241 -189 -124
-0 -0 -0 -0 -0 -0 -0 -0 -0 -0 -0 -251 -180 -189 -115 -88 -189 -204 -218 -331 -397 -494 -362 -261 -301 -253 -192 -184 -168 -145 -115 -112 -117 -106 -93 -79 -65 -56 -48 -51 -71 -77 -159 -189 -216 -252 -260 -246 -169
-0 -0 -0 -0 -0 -0 -0 -0 -0 -0 -0 -0 -229 -255 -162 -82 -198 -176 -278 -354 -150 -471 -353 -253 -255 -218 -180 -170 -162 -148 -117 -119 -107 -93 -70 -65 -57 -63 -58 -72 -83 -81 -166 -199 -234 -312 -342 -318 -259
-0 -0 -0 -0 -0 -0 -0 -0 -0 -0 -0 -0 -0 -258 -224 -156 -181 -222 -166 -135 -458 -428 -346 -320 -237 -228 -202 -171 -134 -130 -137 -147 -124 -99 -64 -49 -43 -41 -51 -88 -68 -99 -153 -218 -291 -442 -11 -0 -10
-0 -0 -0 -0 -0 -0 -0 -0 -0 -0 -0 -0 -0 -354 -203 -198 -319 -116 -165 -198 -416 -418 -350 -264 -226 -220 -186 -127 -101 -122 -146 -149 -118 -92 -75 -53 -31 -31 -87 -88 -57 -60 -144 -264 -405 -0 -0 -0 -0
-0 -0 -0 -0 -0 -0 -0 -0 -0 -0 -0 -0 -0 -301 -236 -135 -237 -130 -249 -506 -484 -416 -335 -233 -211 -184 -177 -139 -109 -150 -167 -150 -116 -100 -79 -50 -46 -69 -105 -67 -54 -67 -121 -293 -0 -0 -0 -0 -124
-0 -0 -0 -0 -0 -0 -0 -0 -0 -0 -0 -0 -0 -0 -202 -241 -188 -361 -453 -320 -505 -413 -309 -224 -161 -139 -144 -131 -131 -153 -166 -155 -113 -109 -94 -82 -66 -107 -88 -71 -63 -89 -145 -318 -0 -0 -0 -0 -267
-0 -0 -0 -0 -0 -0 -0 -0 -0 -0 -0 -0 -0 -0 -0 -264 -196 -435 -435 -335 -249 -402 -305 -281 -187 -137 -103 -50 -114 -128 -152 -140 -115 -104 -106 -106 -74 -122 -99 -87 -81 -124 -171 -361 -0 -0 -0 -0 -0
-0 -0 -0 -0 -0 -0 -0 -0 -0 -0 -0 -0 -0 -0 -0 -427 -221 -408 -406 -405 -304 -273 -332 -254 -216 -189 -65 -66 -47 -74 -88 -101 -96 -72 -71 -66 -45 -43 -70 -106 -140 -151 -234 -415 -0 -0 -0 -0 -0
-0 -0 -0 -0 -0 -0 -0 -0 -0 -0 -0 -0 -0 -0 -486 -393 -319 -232 -242 -245 -303 -297 -333 -272 -287 -199 -41 -29 -61 -19 -18 -15 -8 -12 -9 -13 -23 -29 -56 -113 -187 -232 -272 -311 -191 -0 -0 -0 -0
-0 -0 -0 -0 -0 -0 -0 -0 -0 -0 -0 -0 -0 -0 -0 -338 -257 -238 -193 -166 -191 -216 -275 -147 -100 -176 -103 -103 -38 -41 -9 -15 -7 -10 -23 -28 -17 -19 -34 -48 -80 -77 -223 -240 -334 -0 -0 -0 -0
-0 -0 -0 -0 -0 -0 -0 -0 -0 -0 -0 -0 -0 -0 -0 -322 -267 -218 -176 -114 -221 -234 -236 -121 -123 -168 -164 -172 -134 -92 -31 -52 -4 -16 -21 -50 -50 -57 -18 -26 -45 -83 -137 -190 -279 -386 -0 -0 -0
-0 -0 -0 -0 -0 -0 -0 -0 -0 -0 -0 -0 -0 -0 -0 -0 -253 -280 -211 -162 -248 -209 -246 -175 -151 -161 -113 -199 -144 -102 -48 -50 -37 -0 -2 -8 -0 -13 -25 -20 -46 -83 -107 -134 -170 -209 -270 -127 -0
-0 -0 -0 -0 -0 -0 -0 -0 -0 -0 -0 -0 -0 -0 -0 -0 -0 -0 -401 -235 -269 -218 -244 -285 -174 -146 -115 -85 -134 -129 -64 -44 -20 -2 -3 -3 -0 -4 -17 -15 -34 -56 -112 -167 -196 -170 -175 -233 -439
-0 -0 -0 -0 -0 -0 -0 -0 -0 -0 -0 -0 -0 -0 -0 -0 -0 -0 -0 -359 -261 -284 -233 -306 -207 -171 -129 -93 -99 -60 -41 -29 -18 -8 -0 -0 -0 -23 -22 -26 -37 -77 -82 -171 -206 -191 -196 -154 -155
-0 -0 -0 -0 -0 -0 -0 -0 -0 -0 -0 -0 -0 -0 -0 -0 -0 -0 -0 -0 -0 -349 -305 -271 -200 -169 -142 -126 -92 -20 -36 -41 -19 -6 -20 -30 -15 -4 -13 -9 -36 -33 -48 -48 -51 -50 -21 -24 -31
-0 -0 -0 -0 -0 -0 -0 -0 -0 -0 -0 -0 -0 -0 -0 -0 -0 -0 -0 -0 -0 -0 -351 -313 -242 -167 -134 -88 -25 -23 -42 -3 -6 -21 -18 -12 -1 -2 -4 -17 -35 -32 -31 -28 -26 -28 -28 -36 -41
-0 -0 -0 -0 -0 -0 -0 -0 -0 -0 -0 -0 -0 -0 -0 -0 -0 -0 -0 -0 -0 -0 -371 -310 -282 -151 -97 -57 -27 -15 -21 -20 -0 -0 -12 -0 -1 -6 -21 -31 -47 -69 -148 -180 -89 -121 -105 -44 -114
-0 -0 -0 -0 -0 -0 -0 -0 -0 -0 -0 -0 -0 -0 -0 -0 -0 -0 -0 -0 -512 -522 -427 -261 -191 -155 -77 -39 -11 -7 -2 -11 -30 -4 -18 -23 -14 -63 -57 -78 -215 -235 -1 -1 -0 -0 -0 -0 -105
-0 -0 -0 -0 -0 -0 -0 -0 -0 -0 -0 -0 -0 -0 -0 -0 -0 -0 -613 -10 -467 -440 -352 -220 -179 -91 -58 -24 -5 -13 -0 -37 -17 -0 -0 -0 -0 -0 -0 -0 -0 -0 -0 -0 -0 -0 -0 -0 -0
-0 -0 -0 -0 -0 -0 -0 -0 -0 -0 -0 -0 -0 -0 -0 -0 -0 -0 -421 -334 -355 -263 -258 -183 -143 -80 -36 -2 -0 -0 -8 -91 -0 -0 -0 -0 -0 -0 -0 -0 -0 -0 -0 -0 -0 -0 -0 -0 -0
-0 -0 -0 -0 -0 -0 -0 -0 -0 -0 -0 -0 -0 -0 -0 -0 -0 -0 -27 -51 -182 -143 -112 -95 -89 -63 -25 -11 -59 -7 -0 -0 -0 -0 -0 -0 -0 -0 -0 -0 -0 -0 -0 -0 -0 -0 -0 -0 -0
-0 -0 -0 -0 -0 -0 -0 -0 -0 -0 -0 -0 -0 -0 -0 -0 -0 -0 -0 -0 -0 -0 -0 -0 -0 -0 -0 -0 -0 -0 -0 -0 -0 -0 -0 -0 -0 -0 -0 -0 -0 -0 -0 -0 -0 -0 -0 -0 -0
-0 -0 -0 -0 -0 -0 -0 -0 -0 -0 -0 -0 -0 -0 -0 -0 -0 -0 -0 -0 -0 -0 -0 -0 -0 -0 -0 -0 -0 -0 -0 -0 -0 -0 -0 -0 -0 -0 -0 -0 -0 -0 -0 -0 -0 -0 -0 -0 -0
-0 -0 -0 -0 -0 -0 -0 -0 -0 -0 -0 -0 -0 -0 -0 -0 -0 -0 -0 -0 -0 -0 -0 -0 -0 -0 -0 -0 -0 -0 -0 -0 -0 -0 -0 -0 -0 -0 -0 -0 -0 -0 -0 -0 -0 -0 -0 -0 -0
-0 -0 -0 -0 -0 -0 -0 -0 -0 -0 -0 -0 -0 -0 -0 -0 -0 -0 -0 -0 -0 -0 -0 -0 -0 -0 -0 -0 -0 -0 -0 -0 -0 -0 -0 -0 -0 -0 -0 -0 -0 -0 -0 -0 -0 -0 -0 -0 -0
-0 -0 -0 -0 -0 -0 -0 -0 -0 -0 -0 -0 -0 -0 -0 -0 -0 -0 -0 -0 -0 -0 -0 -0 -0 -0 -0 -0 -0 -0 -0 -0 -0 -0 -0 -0 -0 -0 -0 -0 -0 -0 -0 -0 -0 -0 -0 -0 -0
-2 -4 -0 -2 -0 -0 -0 -0 -0 -0 -0 -0 -0 -0 -0 -0 -0 -0 -0 -0 -0 -0 -0 -0 -0 -0 -0 -0 -0 -0 -0 -0 -0 -0 -0 -0 -0 -0 -0 -0 -0 -0 -0 -0 -0 -0 -0 -0 -0
-0 -0 -0 -9 -13 -0 -0 -0 -0 -0 -0 -0 -0 -0 -0 -0 -0 -0 -0 -0 -0 -0 -0 -0 -0 -0 -0 -0 -0 -0 -0 -0 -0 -0 -0 -0 -0 -0 -0 -0 -0 -0 -0 -0 -0 -0 -0 -0 -0
-0 -0 -0 -0 -0 -0 -0 -0 -0 -0 -0 -0 -0 -0 -0 -0 -0 -0 -0 -0 -0 -0 -0 -0 -0 -0 -0 -0 -0 -0 -0 -0 -0 -0 -0 -0 -0 -0 -0 -0 -0 -0 -0 -0 -0 -0 -0 -0 -0
Wind_Speed
nan nan nan nan nan nan nan nan nan nan nan nan nan nan 19 16 nan nan 21 32 30 42 42 45 46 48 51 54 51 50 47 43 39 34 31 30 30 30 29 25 21 20 19 20 17 18 18 18 18
nan nan nan nan nan nan nan nan nan nan nan 20 16 13 16 21 18 21 27 34 33 41 44 47 47 49 52 52 48 47 41 37 33 30 29 29 31 30 28 25 22 21 20 20 17 18 19 18 17
nan nan nan nan nan nan nan nan nan nan nan nan nan 13 14 19 17 23 23 35 33 40 43 43 46 50 52 47 48 46 38 31 27 28 27 28 30 31 29 26 24 22 20 19 17 18 19 18 17
nan nan nan nan nan nan nan nan nan nan nan nan nan nan 14 13 14 16 29 34 36 39 40 44 42 47 50 43 42 39 32 25 23 26 24 26 28 29 27 25 25 23 21 19 18 nan nan nan nan
nan nan nan nan nan nan nan nan nan nan nan nan nan nan 13 14 18 24 28 30 34 38 40 43 44 47 41 36 37 34 26 21 20 21 22 23 26 27 26 24 24 23 20 18 nan nan nan nan nan
nan nan nan nan nan nan nan nan nan nan nan nan nan nan 16 17 20 25 26 29 32 39 40 44 44 39 34 32 31 28 25 22 19 19 19 21 24 26 26 23 21 21 19 19 nan nan nan nan nan
nan nan nan nan nan nan nan nan nan nan nan nan nan nan nan 16 23 25 27 30 34 38 41 41 39 35 27 24 26 25 25 24 20 18 19 20 22 22 22 21 20 20 18 17 nan nan nan nan nan
nan nan nan nan nan nan nan nan nan nan nan nan nan nan nan 21 28 26 29 34 37 40 42 40 36 31 25 22 22 24 25 23 21 18 17 19 21 20 20 21 19 21 18 16 nan nan nan nan nan
nan nan nan nan nan nan nan nan nan nan nan nan nan nan nan 28 31 28 33 35 38 44 45 38 33 26 23 20 20 22 23 22 21 19 17 19 17 19 21 21 23 22 22 nan nan nan nan nan nan
nan nan nan nan nan nan nan nan nan nan nan nan nan nan 28 32 30 30 36 39 44 50 47 38 29 24 22 17 18 18 18 18 17 17 16 15 18 19 19 21 26 25 24 22 nan nan nan nan nan
nan nan nan nan nan nan nan nan nan nan nan nan nan nan nan 32 31 30 36 42 49 51 44 37 28 23 20 16 16 17 15 15 14 16 15 16 19 21 19 22 23 23 25 22 nan nan nan nan nan
nan nan nan nan nan nan nan nan nan nan nan nan nan nan nan 34 34 34 41 45 54 50 42 35 28 26 19 18 17 16 14 14 15 15 17 18 20 21 20 21 23 25 26 26 24 nan nan nan nan
nan nan nan nan nan nan nan nan nan nan nan nan nan nan nan nan nan 33 42 43 53 46 38 32 28 27 23 21 18 17 18 18 19 20 19 21 23 23 23 24 24 26 29 30 30 29 30 nan nan
nan nan nan nan nan nan nan nan nan nan nan nan nan nan nan nan nan nan nan 47 52 40 32 30 27 27 25 21 17 18 21 22 22 20 22 23 24 26 23 23 24 26 29 33 34 36 36 34 nan
nan nan nan nan nan nan nan nan nan nan nan nan nan nan nan nan nan nan nan nan 40 34 28 30 28 28 26 24 22 21 22 22 21 21 24 24 25 25 23 24 26 27 30 31 34 37 39 39 41
nan nan nan nan nan nan nan nan nan nan nan nan nan nan nan nan nan nan nan nan nan nan 29 30 28 28 27 25 26 24 25 25 24 23 24 24 24 25 27 25 27 29 31 33 35 38 40 43 45
nan nan nan nan nan nan nan nan nan nan nan nan nan nan nan nan nan nan nan nan nan nan 32 31 30 29 30 30 27 25 27 26 25 27 29 28 28 29 29 29 27 31 36 39 42 45 48 49 51
nan nan nan nan nan nan nan nan nan nan nan nan nan nan nan nan nan nan nan nan nan nan 32 32 34 35 33 29 29 28 28 31 30 30 32 33 33 33 33 33 33 39 40 42 46 46 52 52 53
nan nan nan nan nan nan nan nan nan nan nan nan nan nan nan nan nan nan nan nan nan nan nan 35 38 39 35 33 31 30 29 32 34 35 38 38 39 40 40 42 nan nan nan nan nan nan nan nan nan
nan nan nan nan nan nan nan nan nan nan nan nan nan nan nan nan nan nan nan nan nan nan 41 39 43 44 39 36 31 31 31 34 nan nan nan nan nan nan nan nan nan nan nan nan nan nan nan nan nan
nan nan nan nan nan nan nan nan nan nan nan nan nan nan nan nan nan nan nan 50 50 44 46 44 47 49 44 41 37 37 38 nan nan nan nan nan nan nan nan nan nan nan nan nan nan nan nan nan nan
nan nan nan nan nan nan nan nan nan nan nan nan nan nan nan nan nan nan nan nan 54 43 47 49 50 52 48 45 44 nan nan nan nan nan nan nan nan nan nan nan nan nan nan nan nan nan nan nan nan
nan nan nan nan nan nan nan nan nan nan nan nan nan nan nan nan nan nan nan nan nan nan nan nan nan nan nan nan nan nan nan nan nan nan nan nan nan nan nan nan nan nan nan nan nan nan nan nan nan
nan nan nan nan nan nan nan nan nan nan nan nan nan nan nan nan nan nan nan nan nan nan nan nan nan nan nan nan nan nan nan nan nan nan nan nan nan nan nan nan nan nan nan nan nan nan nan nan nan
nan nan nan nan nan nan nan nan nan nan nan nan nan nan nan nan nan nan nan nan nan nan nan nan nan nan nan nan nan nan nan nan nan nan nan nan nan nan nan nan nan nan nan nan nan nan nan nan nan
nan nan nan nan nan nan nan nan nan nan nan nan nan nan nan nan nan nan nan nan nan nan nan nan nan nan nan nan nan nan nan nan nan nan nan nan nan nan nan nan nan nan nan nan nan nan nan nan nan
nan nan nan nan nan nan nan nan nan nan nan nan nan nan nan nan nan nan nan nan nan nan nan nan nan nan nan nan nan nan nan nan nan nan nan nan nan nan nan nan nan nan nan nan nan nan nan nan nan
nan nan nan nan nan nan nan nan nan nan nan nan nan nan nan nan nan nan nan nan nan nan nan nan nan nan nan nan nan nan nan nan nan nan nan nan nan nan nan nan nan nan nan nan nan nan nan nan nan
nan nan nan nan nan nan nan nan nan nan nan nan nan nan nan nan nan nan nan nan nan nan nan nan nan nan nan nan nan nan nan nan nan nan nan nan nan nan nan nan nan nan nan nan nan nan nan nan nan
nan nan nan nan nan nan nan nan nan nan nan nan nan nan nan nan nan nan nan nan nan nan nan nan nan nan nan nan nan nan nan nan nan nan nan nan nan nan nan nan nan nan nan nan nan nan nan nan nan
Wind_Direction
nan nan nan nan nan nan nan nan nan nan nan nan nan nan 296 290 nan nan 316 330 322 326 329 329 329 329 327 325 324 321 319 319 321 320 318 317 317 316 315 318 320 318 321 318 322 315 306 301 306
nan nan nan nan nan nan nan nan nan nan nan 267 278 307 301 296 305 315 319 327 321 323 326 328 327 325 325 323 323 322 320 320 319 317 316 316 317 318 316 317 320 323 324 319 320 315 315 308 301
nan nan nan nan nan nan nan nan nan nan nan nan nan 283 323 314 305 309 296 315 316 323 323 323 323 323 325 325 323 323 323 322 319 319 317 317 320 323 321 317 320 321 320 320 320 317 317 316 307
nan nan nan nan nan nan nan nan nan nan nan nan nan nan 316 315 308 292 304 316 322 323 323 319 321 327 328 325 322 324 322 319 319 319 316 317 318 320 319 318 318 315 319 323 324 nan nan nan nan
nan nan nan nan nan nan nan nan nan nan nan nan nan nan 297 296 287 298 312 318 325 322 315 317 320 325 324 322 320 323 320 315 316 313 310 312 312 317 317 316 316 315 318 318 nan nan nan nan nan
nan nan nan nan nan nan nan nan nan nan nan nan nan nan 290 281 302 310 316 321 326 320 318 315 320 320 317 318 318 321 319 314 312 307 310 313 314 314 314 314 311 307 310 309 nan nan nan nan nan
nan nan nan nan nan nan nan nan nan nan nan nan nan nan nan 294 307 313 322 322 318 317 315 311 318 323 313 313 318 319 318 313 310 308 309 310 306 305 308 309 305 305 301 303 nan nan nan nan nan
nan nan nan nan nan nan nan nan nan nan nan nan nan nan nan 293 308 312 318 322 317 319 317 317 318 327 319 320 312 315 314 312 308 304 304 299 299 303 304 298 300 300 299 300 nan nan nan nan nan
nan nan nan nan nan nan nan nan nan nan nan nan nan nan nan 285 305 307 317 325 320 320 323 317 316 318 309 315 311 306 308 307 304 299 291 293 298 307 309 297 294 298 303 nan nan nan nan nan nan
nan nan nan nan nan nan nan nan nan nan nan nan nan nan 288 297 310 322 335 332 328 326 323 315 309 301 301 306 308 313 309 309 311 309 305 297 298 297 298 299 299 299 301 305 nan nan nan nan nan
nan nan nan nan nan nan nan nan nan nan nan nan nan nan nan 303 315 326 334 333 331 325 318 315 304 298 305 305 294 286 289 295 299 307 302 299 292 296 302 296 297 296 299 294 nan nan nan nan nan
nan nan nan nan nan nan nan nan nan nan nan nan nan nan nan 310 315 326 330 331 330 323 317 313 307 302 311 295 290 283 278 278 277 279 289 283 280 290 296 296 300 298 297 300 300 nan nan nan nan
nan nan nan nan nan nan nan nan nan nan nan nan nan nan nan nan nan 320 330 327 328 321 317 313 308 306 311 300 289 280 277 274 276 277 282 280 284 291 298 300 302 303 304 306 308 307 308 nan nan
nan nan nan nan nan nan nan nan nan nan nan nan nan nan nan nan nan nan nan 332 330 319 315 309 307 306 308 296 287 273 276 281 283 288 290 293 289 295 301 306 308 309 310 311 310 310 309 307 nan
nan nan nan nan nan nan nan nan nan nan nan nan nan nan nan nan nan nan nan nan 325 312 307 305 300 299 298 295 292 286 281 280 279 282 286 291 294 298 305 303 306 308 308 309 308 309 307 305 303
nan nan nan nan nan nan nan nan nan nan nan nan nan nan nan nan nan nan nan nan nan nan 301 294 290 295 293 289 288 282 279 279 283 284 284 291 294 295 295 297 296 296 299 300 301 301 301 302 303
nan nan nan nan nan nan nan nan nan nan nan nan nan nan nan nan nan nan nan nan nan nan 286 285 287 286 283 285 281 280 281 280 283 287 287 292 291 291 290 289 290 293 294 296 298 298 300 298 298
nan nan nan nan nan nan nan nan nan nan nan nan nan nan nan nan nan nan nan nan nan nan 275 278 273 277 280 278 276 275 277 281 283 282 283 283 285 287 287 284 283 284 286 289 292 295 295 295 293
nan nan nan nan nan nan nan nan nan nan nan nan nan nan nan nan nan nan nan nan nan nan nan 271 272 275 276 274 270 272 278 281 279 278 277 277 275 276 280 281 nan nan nan nan nan nan nan nan nan
nan nan nan nan nan nan nan nan nan nan nan nan nan nan nan nan nan nan nan nan nan nan 273 269 268 268 267 265 264 268 274 275 nan nan nan nan nan nan nan nan nan nan nan nan nan nan nan nan nan
nan nan nan nan nan nan nan nan nan nan nan nan nan nan nan nan nan nan nan 300 305 297 271 266 267 266 262 263 266 269 273 nan nan nan nan nan nan nan nan nan nan nan nan nan nan nan nan nan nan
nan nan nan nan nan nan nan nan nan nan nan nan nan nan nan nan nan nan nan nan 302 290 264 261 263 262 261 262 262 nan nan nan nan nan nan nan nan nan nan nan nan nan nan nan nan nan nan nan nan
nan nan nan nan nan nan nan nan nan nan nan nan nan nan nan nan nan nan nan nan nan nan nan nan nan nan nan nan nan nan nan nan nan nan nan nan nan nan nan nan nan nan nan nan nan nan nan nan nan
nan nan nan nan nan nan nan nan nan nan nan nan nan nan nan nan nan nan nan nan nan nan nan nan nan nan nan nan nan nan nan nan nan nan nan nan nan nan nan nan nan nan nan nan nan nan nan nan nan
nan nan nan nan nan nan nan nan nan nan nan nan nan nan nan nan nan nan nan nan nan nan nan nan nan nan nan nan nan nan nan nan nan nan nan nan nan nan nan nan nan nan nan nan nan nan nan nan nan
nan nan nan nan nan nan nan nan nan nan nan nan nan nan nan nan nan nan nan nan nan nan nan nan nan nan nan nan nan nan nan nan nan nan nan nan nan nan nan nan nan nan nan nan nan nan nan nan nan
nan nan nan nan nan nan nan nan nan nan nan nan nan nan nan nan nan nan nan nan nan nan nan nan nan nan nan nan nan nan nan nan nan nan nan nan nan nan nan nan nan nan nan nan nan nan nan nan nan
nan nan nan nan nan nan nan nan nan nan nan nan nan nan nan nan nan nan nan nan nan nan nan nan nan nan nan nan nan nan nan nan nan nan nan nan nan nan nan nan nan nan nan nan nan nan nan nan nan
nan nan nan nan nan nan nan nan nan nan nan nan nan nan nan nan nan nan nan nan nan nan nan nan nan nan nan nan nan nan nan nan nan nan nan nan nan nan nan nan nan nan nan nan nan nan nan nan nan
nan nan nan nan nan nan nan nan nan nan nan nan nan nan nan nan nan nan nan nan nan nan nan nan nan nan nan nan nan nan nan nan nan nan nan nan nan nan nan nan nan nan nan nan nan nan nan nan nan